Retour au catalogue

FENGYUN 1C DEB

ActifPO
NORAD 30447·DEBRIS·🇨🇳 China

Lancé May 10, 1999 depuis Taiyuan Satellite Launch Center

Loading…

Prochains Passages (prochaines 24 heures)

TLE

FraisSource: Space-Track

Époque: Sep 13, 2026, 06:22 UTC

1 30447U 99025AFJ 26256.26545086  .00005200  00000-0  10369-2 0  9998
2 30447  98.9552 144.8015 0052332 276.9086 208.2849 14.61599590 20918

Suivez FENGYUN 1C DEB en temps réel avec AllMySat

Download on the App Store